Location: Arpaise
(41.0333°N, 14.7333°E)
Time: 21:47:22
(UTC+00:00)

Cosmos 846 Rocket - Pass Details

Date: 24 January 2021
Orbit: 948 x 991 km, 82.9° (Epoch: 06 March)

Event Time Altitude Azimuth Distance (km) Brightness Sun altitude
Rises 04:50:28 0° 356° (N) 3,631 8.3 -16.6°
Reaches altitude 10° 04:53:01 10° 1° (N) 2,680 7.7 -16.1°
Maximum altitude 04:59:02 57° 79° (E) 1,111 6.1 -15.0°
Drops below altitude 10° 05:05:00 10° 158° (SSE) 2,667 8.3 -13.9°
Sets 05:07:33 0° 162° (SSE) 3,612 8.9 -13.5°
